Simultaneous Nadir Overpasses (SNOs) Predictions

Prediction of SNOs between NOAA-19 and TERRA Satellite Orbit:

Table of predicted SNOs for the next 14.0 days since TLE Epoch: 4/26/2015
Index Date (NOAA-19) Time (NOAA-19) Lat,Lon (NOAA-19) SZA (NOAA-19 ) Date (TERRA) Time (TERRA) Lat,Lon (TERRA) SZA (TERRA ) Distance(km) Time Diff (sec)
1 04/26/2015 19:18:14 71.83,-106.09 58.18 04/26/2015 19:18:41 71.84,-106.12 58.19 1.84 27
2 04/26/2015 20:09:17 -71.72, 61.34 121.93 04/26/2015 20:08:11 -71.72, 61.32 121.94 0.66 66
3 04/29/2015 00:01:47 72.26,-177.77 57.90 04/29/2015 00:02:57 72.13,-176.70 57.80 39.13 70
4 04/29/2015 00:52:43 -71.82, -9.66 122.54 04/29/2015 00:52:31 -71.80, -9.64 122.56 2.14 12
5 05/01/2015 05:36:08 -71.88, -80.59 123.16 05/01/2015 05:36:51 -71.86, -80.62 123.17 2.11 43
6 05/01/2015 06:27:04 71.76, 86.90 56.73 05/01/2015 06:26:18 71.77, 86.86 56.73 1.58 46
7 05/03/2015 11:10:30 71.86, 15.88 56.17 05/03/2015 11:10:37 71.86, 15.94 56.17 1.95 7
8 05/03/2015 12:01:24 -71.35,-175.92 124.33 05/03/2015 12:00:13 -71.43,-177.15 124.29 44.68 71
9 05/05/2015 15:53:55 71.92, -55.05 55.60 05/05/2015 15:54:56 71.94, -55.01 55.62 2.81 61
10 05/05/2015 16:44:56 -71.79, 112.44 124.55 05/05/2015 16:44:27 -71.78, 112.35 124.56 3.32 29
11 05/07/2015 21:28:21 -71.89, 41.45 125.07 05/07/2015 21:28:45 -71.90, 41.47 125.05 2.17 24
12 05/07/2015 22:19:19 71.81,-151.15 54.86 05/07/2015 22:18:12 71.80,-151.05 54.84 3.36 67
13 05/10/2015 02:11:50 -72.20, -29.98 125.36 05/10/2015 02:13:02 -72.06, -29.33 125.47 26.62 72
14 05/10/2015 03:02:43 71.84, 137.97 54.30 05/10/2015 03:02:31 71.85, 137.95 54.30 1.50 12




NCC Satellite Simultaneous Nadir Overpasses (SNOs) Prediction Service
